This is the latest recevied weather packets stored in our database for station/object N8XHB. If no packets are shown the sender has not sent any weather packets the latest 10 day(s).
| Time | Temp. | Humidity | Pressure | Rain* | Wind** | Luminosity | Snow |
|---|---|---|---|---|---|---|---|
| 1777987846 | 10° C | 63% | 1007.5 hPa | 0 mm | - | 186 W/m² | - |
| 1777987543 | 10° C | 66% | 1007.6 hPa | 0 mm | - | 162 W/m² | - |
| 1777987241 | 9.44° C | 66% | 1007.3 hPa | 0 mm | - | 155 W/m² | - |
| 1777986937 | 9.44° C | 67% | 1007.4 hPa | 0 mm | - | 140 W/m² | - |
| 1777986635 | 9.44° C | 68% | 1007 hPa | 0 mm | - | 108 W/m² | - |
| 1777986333 | 9.44° C | 69% | 1007 hPa | 0 mm | - | 59 W/m² | - |
| 1777986031 | 9.44° C | 68% | 1006.9 hPa | 0 mm | - | 55 W/m² | - |
| 1777985727 | 9.44° C | 70% | 1006.8 hPa | 0 mm | - | 42 W/m² | - |
| 1777985424 | 9.44° C | 69% | 1006.6 hPa | 0 mm | - | 41 W/m² | - |
| 1777985121 | 9.44° C | 69% | 1006.5 hPa | 0 mm | - | 43 W/m² | - |
| 1777984817 | 9.44° C | 68% | 1006.7 hPa | 0 mm | - | 40 W/m² | - |
| 1777984514 | 9.44° C | 67% | 1005.7 hPa | 0 mm | - | 37 W/m² | - |
| 1777984210 | 10° C | 65% | 1006.5 hPa | 0 mm | - | 24 W/m² | - |
| 1777983907 | 10.56° C | 64% | 1006 hPa | 0 mm | - | 98 W/m² | - |
| 1777983604 | 10.56° C | 64% | 1005.9 hPa | 0 mm | - | 193 W/m² | - |
| 1777983301 | 10° C | 65% | 1005.6 hPa | 0 mm | - | 198 W/m² | - |
| 1777982997 | 10° C | 65% | 1005.6 hPa | 0 mm | - | 88 W/m² | - |
| 1777982693 | 10° C | 64% | 1005.3 hPa | 0 mm | - | 56 W/m² | - |
| 1777982392 | 10° C | 64% | 1005.2 hPa | 0 mm | - | 58 W/m² | - |
| 1777982089 | 10° C | 64% | 1005.2 hPa | 0 mm | - | 89 W/m² | - |
| 1777981787 | 10° C | 65% | 1005.5 hPa | 0 mm | - | 101 W/m² | - |
| 1777981483 | 10° C | 65% | 1005.4 hPa | 0 mm | - | 62 W/m² | - |
| 1777981180 | 10° C | 64% | 1005.2 hPa | 0 mm | - | 37 W/m² | - |
| 1777980876 | 10° C | 66% | 1005.1 hPa | 0 mm | - | 63 W/m² | - |
| 1777980572 | 10° C | 66% | 1005.1 hPa | 0 mm | - | 43 W/m² | - |
* Rain latest hour (hover to see other rain measurements)
** Current wind speed in m/s (hover to see current wind gust speed)